Location: *
(50.2903°S, 172.5375°W)
Time: 11:55:40
(UTC+00:00)

Daily predictions for brighter satellites

Satellite Brightness Start Highest point End
(mag) Time Altitude Azimuth Time Altitude Azimuth Time Altitude Azimuth
Cosmos 1626 Rocket 4.1 12:01:11 10° S 12:05:32 54° ESE 12:07:20 31° NE
STARLINK 1055 4.5 12:07:06 24° E 12:07:06 24° E 12:08:25 10° E
STARLINK 1022 4.4 12:07:36 25° E 12:07:36 25° E 12:08:58 10° E
STARLINK 1056 4.4 12:08:33 25° E 12:08:33 25° E 12:09:56 10° E
STARLINK 1054 4.3 12:09:03 26° E 12:09:03 26° E 12:10:30 10° E
STARLINK 1027 4.2 12:09:20 29° ESE 12:09:20 29° ESE 12:10:56 10° E
Cosmos 292 Rocket 3.9 12:06:42 43° N 12:08:13 69° ENE 12:13:05 10° SSE
STARLINK 1028 4.2 12:09:31 27° E 12:09:31 27° E 12:11:01 10° E
STARLINK 1062 4.1 12:09:26 30° ESE 12:09:26 30° ESE 12:11:03 10° E
STARLINK 1021 4.2 12:09:41 28° E 12:09:41 28° E 12:11:11 10° E
STARLINK 1019 4.4 12:09:56 24° E 12:09:56 24° E 12:11:13 10° E
STARLINK 1012 4.1 12:09:42 30° ESE 12:09:42 30° ESE 12:11:22 10° E
STARLINK 1010 4.3 12:10:02 26° E 12:10:02 26° E 12:11:27 10° E
STARLINK 1026 4.1 12:09:54 31° ESE 12:09:54 31° ESE 12:11:35 10° E
STARLINK 1053 4.1 12:09:57 31° ESE 12:09:57 31° ESE 12:11:38 10° E
STARLINK 1013 4.1 12:10:00 31° ESE 12:10:00 31° ESE 12:11:41 10° E
STARLINK 1009 4.2 12:10:13 28° E 12:10:13 28° E 12:11:46 10° E
STARLINK 1015 4.1 12:10:17 29° ESE 12:10:17 29° ESE 12:11:53 10° E
STARLINK 1016 4.0 12:10:16 32° ESE 12:10:16 32° ESE 12:12:00 10° E
STARLINK 1008 4.4 12:10:42 25° E 12:10:42 25° E 12:12:05 10° E
STARLINK 1061 4.3 12:10:43 27° E 12:10:43 27° E 12:12:10 10° E
STARLINK 1014 4.0 12:10:27 33° ESE 12:10:27 33° ESE 12:12:12 10° E
STARLINK 1025 4.3 12:10:53 26° E 12:10:53 26° E 12:12:17 10° E
STARLINK 1017 4.3 12:10:58 26° E 12:10:58 26° E 12:12:24 10° E
STARLINK 1023 4.3 12:11:01 27° E 12:11:01 27° E 12:12:31 10° E
STARLINK 1007 3.9 12:10:50 34° ESE 12:10:50 34° ESE 12:12:38 10° E
STARLINK 1048 4.1 12:11:03 31° ESE 12:11:03 31° ESE 12:12:44 10° E
STARLINK 1067 4.2 12:11:16 27° E 12:11:16 27° E 12:12:46 10° E
STARLINK 1049 4.2 12:11:18 28° E 12:11:18 28° E 12:12:48 10° E
STARLINK 1051 4.0 12:11:11 32° ESE 12:11:11 32° ESE 12:12:56 10° E
STARLINK 1037 4.2 12:11:28 28° E 12:11:28 28° E 12:13:01 10° E
STARLINK 1059 4.1 12:11:31 30° ESE 12:11:31 30° ESE 12:13:09 10° E
STARLINK 1057 3.8 12:11:24 36° ESE 12:11:24 36° ESE 12:13:18 10° E
STARLINK 1058 4.4 12:11:59 25° E 12:11:59 25° E 12:13:21 10° E
STARLINK 1052 3.8 12:11:31 36° ESE 12:11:31 36° ESE 12:13:24 10° E
STARLINK 1068 3.8 12:11:37 36° ESE 12:11:37 36° ESE 12:13:31 10° E
STARLINK 1029 3.8 12:11:41 37° ESE 12:11:41 37° ESE 12:13:37 10° E
STARLINK 1060 3.9 12:11:52 34° ESE 12:11:52 34° ESE 12:13:41 10° E
STARLINK 1030 4.0 12:12:05 32° ESE 12:12:05 32° ESE 12:13:49 10° E
STARLINK 1020 4.1 12:12:17 30° E 12:12:17 30° E 12:13:54 10° E
STARLINK 1043 3.9 12:12:10 34° ESE 12:12:10 34° ESE 12:13:58 10° E
STARLINK 1034 3.7 12:12:04 38° ESE 12:12:04 38° ESE 12:14:02 10° E
STARLINK 1033 4.0 12:12:34 31° ESE 12:12:34 31° ESE 12:14:14 10° E
STARLINK 1031 3.8 12:12:29 36° ESE 12:12:29 36° ESE 12:14:22 10° E
STARLINK 1024 4.0 12:12:45 32° ESE 12:12:45 32° ESE 12:14:28 10° E
STARLINK 1035 4.0 12:12:50 32° ESE 12:12:50 32° ESE 12:14:34 10° E
STARLINK 1065 3.7 12:12:34 40° ESE 12:12:34 40° ESE 12:14:36 10° E
STARLINK 1032 3.6 12:12:39 40° ESE 12:12:39 40° ESE 12:14:43 10° E
STARLINK 1011 3.9 12:13:02 33° ESE 12:13:02 33° ESE 12:14:48 10° E
STARLINK 1036 3.6 12:12:51 41° ESE 12:12:51 41° ESE 12:14:55 10° E
STARLINK 1045 3.6 12:12:57 42° ESE 12:12:57 42° ESE 12:15:02 10° E
STARLINK 1047 3.6 12:13:03 42° ESE 12:13:03 42° ESE 12:15:09 10° E
STARLINK 1063 3.6 12:13:04 42° ESE 12:13:04 42° ESE 12:15:12 10° E
STARLINK 1064 3.5 12:13:37 44° ESE 12:13:37 44° ESE 12:15:48 10° E
STARLINK 1041 3.8 12:14:28 37° ESE 12:14:28 37° ESE 12:16:23 10° E
STARLINK 1038 3.4 12:14:43 49° ESE 12:14:43 49° ESE 12:17:02 10° E
STARLINK 1046 3.3 12:15:15 51° SE 12:15:15 51° SE 12:17:39 10° E
IRS-1D 4.0 12:12:00 22° NE 12:15:17 62° ESE 12:20:35 10° S
STARLINK 1039 3.2 12:15:48 54° SE 12:15:48 54° SE 12:18:17 10° E
USA 215 3.7 12:10:36 10° ESE 12:16:56 45° NE 12:19:41 31° N
Resurs 1-4 Rocket 2.0 12:15:04 35° N 12:17:23 80° WNW 12:22:45 10° SSW
Cosmos 1777 Rocket 4.0 12:13:08 10° SSW 12:18:33 89° ESE 12:21:27 28° NNE
COSMOS 2406 3.8 12:13:43 10° SW 12:19:06 41° WNW 12:20:46 34° NNW
Cosmos 1733 3.4 12:21:25 46° NNE 12:22:20 63° E 12:26:14 10° SSE
Cosmos 2082 Rocket 2.2 12:17:52 10° SSW 12:23:39 85° ESE 12:27:51 19° NNE
ATLAS CENTAUR R/B 2.3 12:20:27 10° SSW 12:24:30 50° SE 12:28:51 10° ENE
Cosmos 2285 Rocket 4.4 12:19:07 10° SSW 12:25:13 48° WNW 12:27:50 31° NNW
ARIANE 5 R/B 3.5 12:23:26 12° NE 12:28:07 46° ESE 12:33:11 10° S
Cosmos 962 Rocket 4.5 12:22:06 10° S 12:28:28 82° W 12:32:01 28° N
IRS-1C 4.5 12:26:26 19° NNE 12:30:15 66° ESE 12:35:39 10° S
ALOS 2 3.1 12:32:21 10° S 12:36:41 49° WSW 12:38:20 32° NW
Cosmos 921 Rocket 3.3 12:35:16 36° NW 12:36:53 61° WSW 12:41:24 10° SSE
Meteor 1-24 Rocket 3.9 12:31:48 10° SSW 12:37:29 62° W 12:40:17 31° NNW
Cosmos 1833 Rocket 2.8 12:32:01 10° SW 12:37:36 57° WNW 12:40:13 30° N
Cosmos 1674 3.4 12:34:44 10° SSW 12:38:14 35° W 12:38:39 34° WNW
Cosmos 1271 Rocket 3.2 12:36:56 10° S 12:40:47 57° ESE 12:42:45 26° NE
Cosmos 1953 3.9 12:38:56 19° NE 12:41:07 30° E 12:44:45 10° SSE
SL-14 R/B 3.2 12:37:19 10° S 12:41:23 90° SSW 12:42:49 39° N
CENTAUR R/B 3.1 12:37:12 27° NNW 12:41:34 61° NE 12:48:21 10° SE
Cosmos 1626 2.1 12:39:56 10° S 12:43:46 81° ESE 12:45:08 38° NNE
USA 238 DEB 4.0 12:46:09 20° NW 12:51:35 72° SW 12:58:49 10° SE
USA 238 4.0 12:46:17 20° NW 12:51:41 72° SW 12:58:56 10° SE
SJ 16-02 3.4 12:47:48 10° S 12:51:45 28° SE 12:55:38 10° ENE
Cosmos 1602 Rocket 3.6 12:47:47 10° SSW 12:52:12 66° W 12:53:56 35° NNW
Cosmos 2341 Rocket 4.1 12:46:08 10° SSW 12:52:24 61° W 12:55:54 27° NNW
Cosmos 1805 4.1 12:51:38 30° WNW 12:52:48 38° WSW 12:56:33 10° S
USA 267 3.2 12:46:36 10° ENE 12:53:13 87° NNW 12:59:54 10° WSW
CZ-2D R/B 2.8 12:54:32 29° NW 12:56:45 41° W 13:01:57 10° SSW
Cosmos 1758 Rocket 3.9 12:53:40 10° S 12:58:04 65° ESE 13:01:08 19° NNE
ATLAS 3B R/B 3.0 12:54:04 26° NNW 12:58:31 67° NE 13:05:55 10° SE
NOSS 3-2 (A) 4.1 12:52:42 19° NW 12:58:54 74° SW 13:06:13 10° SE
CZ-2C R/B 4.5 12:57:31 10° NE 13:01:15 34° ESE 13:05:01 10° S
Cosmos 1959 Rocket 4.4 12:57:33 10° SSW 13:03:47 81° W 13:08:15 20° N
SL-16 R/B 4.4 13:00:27 10° SE 13:05:22 23° E 13:10:15 10° NE
Cosmos 2278 Rocket 2.6 13:02:01 24° NW 13:05:27 58° SW 13:11:07 10° SSE
IRS-P3 4.3 13:04:01 25° N 13:07:04 59° WNW 13:12:28 10° SSW
Cosmos 44 4.4 13:06:05 16° WNW 13:09:47 42° SW 13:14:46 10° SSE
deb Chang Zheng 4 3.5 13:10:46 20° NNE 13:13:47 86° WNW 13:18:15 10° SSW
Cosmos 1758 3.4 13:13:24 31° NNW 13:15:16 72° W 13:19:24 10° S
FALCON 9 DEB 4.5 13:17:06 17° NE 13:17:06 17° NE 13:17:49 10° NE
Starlink Launch 2 trailer 4.4 13:17:10 18° NE 13:17:10 18° NE 13:17:58 10° NE
ERS-2 3.4 13:12:26 10° SSE 13:15:57 36° E 13:18:21 17° NNE
Cosmos 1898 Rocket 4.0 13:11:07 10° SSW 13:16:21 62° ESE 13:21:32 10° NE
STARLINK 1040 3.7 13:17:51 27° NE 13:17:51 27° NE 13:19:14 10° NE
FALCON 9 DEB 4.4 13:18:31 18° NE 13:18:31 18° NE 13:19:20 10° NE
SL-8 Rocket 4.2 13:13:23 10° SSW 13:19:31 53° W 13:23:30 21° NNW
CZ-3B R/B 2.9 13:14:06 10° WSW 13:20:02 41° S 13:22:15 10° ESE
Cosmos 2218 Rocket 4.2 13:16:02 10° SSW 13:22:24 61° W 13:27:01 19° NNW
Cosmos 1937 Rocket 4.3 13:19:40 10° SSW 13:24:59 55° ESE 13:30:11 10° NE
CZ-2D R/B 3.6 13:21:44 14° NNE 13:25:30 82° ESE 13:29:47 10° SSW
ADEOS II 2.2 13:23:40 19° N 13:27:22 59° W 13:32:40 10° SSW
Cosmos 1242 Rocket 2.5 13:23:42 10° SSW 13:27:23 69° W 13:29:29 24° N
Aureole 1 4.2 13:27:52 32° N 13:29:08 73° ENE 13:32:23 10° SSE
STARLINK 1044 2.6 13:28:53 36° WNW 13:29:34 48° NNW 13:32:11 10° NE
Cosmos 1821 Rocket 4.3 13:27:51 10° S 13:34:10 71° ESE 13:40:19 10° NNE
Cosmos 2369 Rocket 3.6 13:32:49 10° NNE 13:37:48 32° ENE 13:42:50 10° SE
SL-27 R/B 2.5 13:34:59 10° SSW 13:38:37 82° ESE 13:42:08 10° NNE
STARLINK 1050 2.9 13:37:43 18° W 13:39:25 40° NNW 13:42:02 10° NE
STARLINK 1055 2.9 13:38:06 16° W 13:39:58 40° NNW 13:42:36 10° NE
STARLINK 1022 2.9 13:38:37 16° W 13:40:32 40° NNW 13:43:09 10° NE
STARLINK 1042 2.9 13:39:08 17° W 13:40:54 39° NNW 13:43:30 10° NE
Cosmos 2297 3.7 13:37:24 20° NNW 13:41:25 85° WSW 13:47:09 10° SSE
STARLINK 1056 2.9 13:39:34 15° W 13:41:31 39° NNW 13:44:07 10° NE
STARLINK 1054 2.9 13:40:05 15° W 13:42:06 39° NNW 13:44:41 10° NE
STARLINK 1027 3.0 13:40:22 14° W 13:42:31 38° NNW 13:45:08 10° NE
STARLINK 1028 3.0 13:40:34 14° W 13:42:37 38° NNW 13:45:13 10° NE
STARLINK 1062 3.0 13:40:29 13° W 13:42:38 38° NNW 13:45:15 10° NE
STARLINK 1021 3.0 13:40:43 14° W 13:42:47 38° NNW 13:45:23 10° NE
STARLINK 1019 2.9 13:40:58 16° W 13:42:49 38° NNW 13:45:25 10° NE
STARLINK 1012 3.0 13:40:45 13° W 13:42:57 38° NNW 13:45:32 10° NE
STARLINK 1010 3.0 13:41:04 15° W 13:43:02 38° NNW 13:45:37 10° NE
STARLINK 1026 3.0 13:40:56 13° W 13:43:10 38° NNW 13:45:46 10° NE
STARLINK 1053 3.0 13:41:00 13° W 13:43:13 38° NNW 13:45:50 10° NE
NOSS 3-2 (C) 4.3 13:36:05 14° WNW 13:43:14 64° SW 13:50:27 10° SE
STARLINK 1013 3.0 13:41:03 13° W 13:43:16 38° NNW 13:45:53 10° NE
STARLINK 1009 3.0 13:41:15 14° W 13:43:22 38° NNW 13:45:57 10° NE
STARLINK 1015 3.0 13:41:20 14° W 13:43:28 38° NNW 13:46:04 10° NE
STARLINK 1016 3.0 13:41:19 13° W 13:43:35 38° NNW 13:46:11 10° NE
STARLINK 1008 3.0 13:41:44 15° W 13:43:41 38° NNW 13:46:15 10° NE
STARLINK 1061 3.0 13:41:46 15° W 13:43:46 38° NNW 13:46:22 10° NE
STARLINK 1014 3.0 13:41:30 12° W 13:43:48 38° NNW 13:46:24 10° NE
STARLINK 1025 3.0 13:41:56 15° W 13:43:53 37° NNW 13:46:28 10° NE
STARLINK 1017 3.0 13:42:01 15° W 13:44:00 37° NNW 13:46:34 10° NE
STARLINK 1023 3.0 13:42:04 14° W 13:44:06 37° NNW 13:46:42 10° NE
STARLINK 1007 3.0 13:41:53 12° W 13:44:14 37° NNW 13:46:49 10° NE
STARLINK 1048 3.0 13:42:06 13° W 13:44:19 37° NNW 13:46:55 10° NE
STARLINK 1067 3.0 13:42:19 14° W 13:44:22 37° NNW 13:46:58 10° NE
STARLINK 1049 3.0 13:42:21 14° W 13:44:25 37° NNW 13:47:00 10° NE
STARLINK 1051 3.0 13:42:15 12° W 13:44:31 37° NNW 13:47:07 10° NE
STARLINK 1037 3.0 13:42:31 14° W 13:44:36 37° NNW 13:47:12 10° NE
STARLINK 1059 3.0 13:42:35 13° W 13:44:45 37° NNW 13:47:20 10° NE
STARLINK 1057 3.0 13:42:28 11° W 13:44:53 37° NNW 13:47:28 10° NE
STARLINK 1058 3.0 13:43:02 15° W 13:44:57 37° NNW 13:47:31 10° NE
STARLINK 1052 3.0 13:42:34 11° W 13:44:59 37° NNW 13:47:35 10° NE
STARLINK 1068 3.0 13:42:41 11° W 13:45:06 37° NNW 13:47:42 10° NE
STARLINK 1029 3.0 13:42:45 11° W 13:45:12 37° NNW 13:47:47 10° NE
STARLINK 1060 3.0 13:42:56 12° W 13:45:17 37° NNW 13:47:52 10° NE
STARLINK 1030 3.0 13:43:09 13° W 13:45:24 37° NNW 13:47:59 10° NE
STARLINK 1020 3.0 13:43:22 13° W 13:45:30 36° NNW 13:48:04 10° NE
Cosmos 44 Rocket 3.6 13:42:00 19° NW 13:45:33 67° SW 13:50:40 10° SE
STARLINK 1043 3.0 13:43:14 12° W 13:45:34 37° NNW 13:48:08 10° NE
STARLINK 1034 3.0 13:43:09 11° W 13:45:38 37° NNW 13:48:14 10° NE
STARLINK 1033 3.0 13:43:38 13° W 13:45:50 36° NNW 13:48:26 10° NE
STARLINK 1031 3.0 13:43:33 11° W 13:45:57 36° NNW 13:48:33 10° NE
STARLINK 1024 3.0 13:43:49 13° W 13:46:04 36° NNW 13:48:38 10° NE
STARLINK 1035 3.0 13:43:55 13° W 13:46:10 36° NNW 13:48:44 10° NE
STARLINK 1065 3.1 13:43:38 10° W 13:46:11 36° NNW 13:48:46 10° NE
STARLINK 1032 3.1 13:43:43 10° W 13:46:18 36° NNW 13:48:53 10° NE
STARLINK 1011 3.0 13:44:06 12° W 13:46:24 36° NNW 13:48:58 10° NE
STARLINK 1036 3.1 13:43:55 10° W 13:46:31 36° NNW 13:49:06 10° NE
STARLINK 1045 3.1 13:44:02 10° W 13:46:38 36° NNW 13:49:13 10° NE
STARLINK 1047 3.1 13:44:08 10° W 13:46:45 36° NNW 13:49:20 10° NE
STARLINK 1063 3.1 13:44:10 10° W 13:46:47 36° NNW 13:49:22 10° NE
H-2A R/B 4.4 13:43:36 10° SE 13:46:56 20° E 13:50:16 10° NE
STARLINK 1064 3.1 13:44:46 10° W 13:47:23 36° NNW 13:49:58 10° NE
Cosmos 1470 3.8 13:45:26 20° WNW 13:47:34 33° WSW 13:51:18 10° S
STARLINK 1041 3.1 13:45:34 11° W 13:47:59 35° NNW 13:50:34 10° NE
STARLINK 1038 3.1 13:46:01 10° W 13:48:37 35° NNW 13:51:12 10° NE
STARLINK 1046 3.1 13:46:38 10° W 13:49:14 34° NNW 13:51:49 10° NE
STARLINK 1039 3.1 13:47:16 10° W 13:49:53 34° NNW 13:52:27 10° NE
ADEOS 4.2 13:47:15 10° NNE 13:52:26 61° ESE 13:57:39 10° S
Cosmos 1328 3.8 13:49:24 10° S 13:53:34 86° WNW 13:57:39 10° N
Meteor 1-16 Rocket 4.4 13:49:04 13° N 13:54:28 86° E 14:00:27 10° SSE
Cosmos 1825 Rocket 4.2 13:52:16 10° SSW 13:56:21 38° W 13:59:16 17° NNW
Spot 4 Rocket 4.5 13:52:45 14° NNW 13:56:53 44° W 14:01:54 10° SSW
Resurs 1-4 Rocket 4.0 13:56:08 11° WNW 13:58:06 13° W 14:00:33 10° WSW
USA 215 3.4 13:53:35 10° ESE 14:00:15 78° SSW 14:06:52 10° WNW
Cosmos 1943 Rocket 2.7 13:56:07 11° N 14:01:16 53° ENE 14:06:42 10° SE
Cosmos 1726 2.1 14:00:10 16° NNW 14:03:10 80° W 14:07:00 10° S
ATLAS CENTAUR R/B 2.4 13:59:38 10° WSW 14:03:17 28° WNW 14:07:08 10° N
PSLV R/B 4.0 14:02:21 10° NNE 14:06:44 67° ESE 14:11:12 10° S
Cosmos 2082 Rocket 3.7 14:03:12 10° WSW 14:07:01 19° W 14:09:38 14° NW
ARIANE 5 R/B 3.5 14:03:47 15° NNW 14:07:24 31° W 14:12:05 10° SSW
GP-B 4.2 14:03:03 10° SSE 14:07:28 46° E 14:11:48 10° NNE
Cosmos 1606 Rocket 4.3 14:11:36 15° NW 14:15:06 41° WSW 14:19:27 10° S
Nadezhda 3 Rocket 4.0 14:10:21 10° NNW 14:16:27 71° WSW 14:22:45 10° S
Cosmos 1953 3.6 14:14:38 14° NW 14:17:30 28° WSW 14:21:08 10° S
Cosmos 2208 Rocket 4.4 14:12:58 10° N 14:18:24 66° ENE 14:23:50 10° SSE
Cosmos 2298 Rocket 4.4 14:14:14 10° SSW 14:19:39 72° ESE 14:25:01 10° NNE
Cosmos 1953 Rocket 4.5 14:15:35 10° SSW 14:19:42 33° W 14:23:34 11° NNW
Meteor 1-11 4.2 14:15:40 10° SSW 14:21:19 69° W 14:26:56 10° N
Cosmos 990 Rocket 4.3 14:16:53 10° SW 14:21:50 44° WNW 14:26:43 10° N
Cosmos 1818 4.1 14:17:14 10° SW 14:22:39 66° SE 14:28:03 10° NE
ATLAS 5 CENTAUR R/B 4.3 14:20:37 10° SW 14:25:49 29° SSE 14:30:23 10° E
Cosmos 2228 4.0 14:24:16 12° NW 14:28:00 35° WSW 14:32:09 10° S
SJ 16-02 1.9 14:26:14 10° SW 14:30:28 41° WNW 14:34:39 10° N
CENTAUR R/B 3.4 14:25:10 10° WNW 14:32:32 48° SW 14:38:52 10° SE
Cosmos 1934 Rocket 4.0 14:26:49 10° SSW 14:32:58 71° W 14:39:07 10° N
Cosmos 1833 4.4 14:28:54 10° SSW 14:34:45 84° ESE 14:40:28 10° NNE
CZ-2C R/B 4.0 14:32:11 10° NNW 14:35:43 27° W 14:39:18 10° SW
Cosmos 1814 Rocket 4.3 14:31:01 10° NNW 14:36:10 69° ENE 14:41:20 10° SSE
USA 267 3.9 14:30:58 10° NNE 14:36:47 33° NW 14:42:39 10° WSW
Cosmos 1763 Rocket 3.6 14:32:00 10° NNW 14:37:12 71° WSW 14:42:32 10° SSE
MOZ.5/SAFIR/RUBIN 5/SL-8 3.9 14:34:44 10° S 14:39:25 65° WSW 14:44:03 10° NNW
UNK 3.8 14:34:56 10° S 14:39:38 70° WSW 14:44:14 10° NNW
Aureole 2 Rocket 4.1 14:38:20 10° NNE 14:40:41 22° ENE 14:42:59 10° SE
Cosmos 841 Rocket 3.6 14:37:11 10° NNW 14:42:21 80° ENE 14:47:37 10° SSE
Cosmos 1703 4.3 14:39:18 10° SSW 14:42:50 29° W 14:46:19 10° NNW
FALCON 9 DEB 4.5 14:43:15 10° WNW 14:43:54 11° NW 14:44:33 10° NNW
IDEFIX/ARIANE 42P 2.8 14:38:51 10° N 14:43:58 51° W 14:49:10 10° SSW
Cosmos 2058 Rocket 3.8 14:40:14 10° NW 14:44:28 39° WSW 14:48:43 10° S
DEBRIS 3.3 14:41:52 10° W 14:44:40 58° NNW 14:52:29 10° ENE
Cosmos 468 Rocket 4.5 14:40:07 10° NW 14:45:16 51° WSW 14:50:33 10° SSE
Cosmos 1300 3.1 14:42:39 10° N 14:46:30 67° E 14:50:25 10° SSE
Cosmos 1812 Rocket 3.8 14:42:23 10° N 14:46:45 75° E 14:51:13 10° SSE
PAYLOAD A 4.1 14:41:38 10° NNE 14:46:58 86° WNW 14:52:10 10° SSW
ERS-2 3.7 14:46:21 10° S 14:49:21 23° WSW 14:52:20 10° WNW
SL-16 R/B 2.7 14:43:17 10° SSE 14:49:37 76° WSW 14:55:54 10° NNW
ATLAS 3B R/B 3.6 14:42:37 10° WNW 14:49:42 46° SSW 14:56:53 10° SE
Cosmos 2278 Rocket 4.3 14:47:07 10° WSW 14:50:49 17° SSW 14:54:32 10° S
Cosmos 2058 3.3 14:47:12 10° S 14:51:28 73° ESE 14:55:42 10° NNE
CZ-4C R/B 3.8 14:52:00 10° SSE 14:55:24 51° E 14:58:51 10° N
